CZ-2C R/B

Satellite information

Favourite Embed

Satellite Type and Status

ROCKET BODYIN ORBIT

Key statistics

Satellite CZ-2C R/B at a glance.

Uptime

7651

Days in orbit

Revolutions

≈ 14.3

Per day

Orbit

SSO

Sun Synchronous Orbit

Inclination

98.2

Latest

Satellite identification and parameters

Extended collection of information and parameters for CZ-2C R/B.

Object identification

Identified? True

Debris? False

Object name: CZ-2C R/B

International designator: 2004-046B

Object number (NORAD): 28480

Object ID (CCSDS): 28480

Country: PEOPLES REPUBLIC OF CHINA (PRC)

Current information (Y/N): Y

RCS size: LARGE

Orbital parameters

Period: 100.917 minutes

Inclination: 98.1945 deg

SMA: 7180.21 km

Apoapsis: 902.186 km

Periapsis: 701.963 km

RAAN: 220.8367 deg

Eccentricy: 0.01394275

Argument of periapsis: 181.7049 deg

Mean anomaly: 178.3676 deg

Mean motion: 14.26911663 rev/day

Mean motion (dot): 0.00000224 rev/day2

B* drag term: 0.000098474749 1/REarth

Two-line elements (TLE)

Creation date: Oct. 30, 2025, 3:32 a.m.

Reference frame: TEME

Reference center: EARTH

Epoch: Oct. 29, 2025, 5:05 p.m. UTC

TLE line 0: 0 CZ-2C R/B

TLE line 1: 1 28480U 04046B 25302.71230667 .00000224 00000-0 98475-4 0 9995

TLE line 2: 2 28480 98.1945 220.8367 0139427 181.7049 178.3676 14.26911663 89828

Live tracking on map

Real-time ground track for satellite CZ-2C R/B.

In-orbit conjunctions

A list of the most updated potential collisions computed for object CZ-2C R/B.

Target Orbit TCA Probability of collision Miss distance Type
COSMOS 2251 DEB LEO 2025-07-29 05:46:13 0.0001630451 672.0 (m) DEBRIS
CZ-6A DEB LEO 2025-04-17 20:27:34 0.0001915898 682.0 (m) DEBRIS
COSMOS 886 DEB LEO 2024-09-10 10:22:27 0.0001031075 288.0 (m) DEBRIS
NOAA 16 DEB SSO 2024-06-02 12:45:44 0.0001914315 166.0 (m) DEBRIS

Associated space launch

Remote Sensing Technology..

CZ-2C R/B was lifted into orbit during the mission ‘Long March 2C | Shiyan Weixing 2’, on board a Long March 2 space rocket.

The launch took place on Nov. 18, 2004, 10:45 a.m. from Launch Complex 3 (LC-3/LA-1).

For more information about the launch, click the button.

Launch to space Long March 2C | Shiyan Weixing 2
Long March 2C | Shiyan Weixing 2

Agency: N/A

Status: Launch Successful

Launch date: Nov. 18, 2004, 10:45 a.m. UTC

Rocket: Long March 2

Launch pad: Launch Complex 3 (LC-3/LA-1)

Location: Xichang Satellite Launch Center, People's Republic of China

...

Latest news about this satellite

There are no fresh news available about this satellite. Check back as we update our databases every day.


Newsletter sign-up

Weekly statistics, charts and insights to help you stay on top of the space industry.